Regional Weather Roundup
Issued by NWS

Home | Current Version | Previous Version | Graphics & Text | Print | Product List | Glossary On
Versions: 1 2 3 4 5 6 7 8 9 10 11 12 13 14 15 16 17 18 19 20 21 22 23 24 25 26 27 28 29 30 31 32 33 34 35 36 37 38 39 40 41 42 43 44 45 46 47 48 49 50
641
ASUS43 KFSD 140810
RWRSD

WEATHER ROUNDUP FOR SOUTH DAKOTA
NATIONAL WEATHER SERVICE SIOUX FALLS SD
200 AM CST SUN FEB 14 2016

NOTE: "FAIR" INDICATES FEW OR NO CLOUDS BELOW 12,000 FEET WITH NO
SIGNIFICANT WEATHER AND/OR OBSTRUCTIONS TO VISIBILITY.


SDZ001>005-009-010-012>017-140900-
NORTHWEST AND NORTH CENTRAL SOUTH DAKOTA

CITY           SKY/WX    TMP DP  RH WIND       PRES   REMARKS
BUFFALO          N/A     34  29  82 W20       29.77R WCI  23
FAITH            N/A     36  30  79 NW24      29.79S
MOBRIDGE       CLOUDY    19  16  88 SE13      29.78F FOG     WCI   6
$$

SDZ012>016-024>037-041>051-057-063-072>074-140900-
SOUTHWEST AND SOUTH CENTRAL SOUTH DAKOTA

CITY           SKY/WX    TMP DP  RH WIND       PRES   REMARKS
RAPID CTY ARPT CLEAR     39  27  62 NW20G30   29.87R
PIERRE         CLOUDY    24  23  96 MISG      29.80F
CUSTER         CLEAR     31  19  61 NW17G29   29.87F WCI  19
ELLSWORTH AFB  CLEAR     39  27  63 NW23G30   29.85S
PHILIP         CLEAR     36  32  85 W15       29.83F
PINE RIDGE     CLEAR     33  28  81 W12       29.94R WCI  24
SPEARFISH      FAIR      36  27  69 W17G25    29.90F
WINNER         FRZ RAIN  33  29  85 NW8       29.80F FOG     WCI  26
$$

SDZ004>011-016>023-039-040-140900-
NORTHEAST SOUTH DAKOTA

CITY           SKY/WX    TMP DP  RH WIND       PRES   REMARKS
ABERDEEN       FOG       15  11  83 S20G32    29.91F VSB 1/2 WCI  -2
WATERTOWN      LGT SNOW  12   7  80 S20G26    29.92F VSB 3/4 WCI  -6
BROOKINGS      LGT SNOW  10   7  85 S20       29.95F FOG     WCI  -8
SISSETON         N/A     11   8  88 S17       29.98F WCI  -6
$$

SDZ017-020-022-023-036>040-048>070-140900-
SOUTHEAST SOUTH DAKOTA

CITY           SKY/WX    TMP DP  RH WIND       PRES   REMARKS
SIOUX FALLS    LGT SNOW  13   8  81 SE13      29.99F WCI  -2
HURON          CLOUDY    14  10  84 SE17G30   29.92F WCI  -3
CHAMBERLAIN    CLOUDY    20  18  91 SE9       29.83F WCI   9
MITCHELL       SNOW      16  11  80 SE20      29.92F VSB 1/2 WCI  -1
YANKTON        CLOUDY    18   7  62 SE17      29.97F WCI   2
$$

ABBREVIATIONS USED IN REMARKS
   TC - TEMPERATURE IN CELSIUS
  WCI - WIND CHILL INDEX
   HX - HEAT INDEX
  VSB - VISIBILITY





USA.gov is the U.S. government's official web portal to all federal, state and local government web resources and services.